• In Belarus
  • List of Countries
  • For 7 days
  • Water Temperature
  • Satellite Maps
  • Weather Map
  • Weather Widgets
  • user-avatar
    Login

    Hourly Weather Porto Velho

    Today, 19 October, Thursday

    Time Temperature Precipitation Wind Pressure Humidity
    00:00 +27°C° 0 mm 0 mps 750 mmHg 55%
    01:00 +26°C° 0 mm 0 mps 750 mmHg 58%
    02:00 +26°C° 0 mm 0 mps 749 mmHg 60%
    03:00 +25°C° 0.1 mm 0 mps 749 mmHg 64%
    04:00 +25°C° 0.1 mm 0 mps 749 mmHg 68%
    05:00 +24°C° 0.1 mm 0 mps 749 mmHg 71%
    06:00 +25°C° 0.5 mm 0 mps 750 mmHg 72%
    07:00 +28°C° 0.5 mm 1 mps 750 mmHg 72%
    08:00 +29°C° 0.5 mm 1 mps 751 mmHg 73%
    09:00 +33°C° 0 mm 1 mps 751 mmHg 60%
    10:00 +36°C° 0 mm 1 mps 751 mmHg 46%
    11:00 +40°C° 0 mm 1 mps 751 mmHg 33%
    12:00 +40°C° 0 mm 1 mps 750 mmHg 34%
    13:00 +40°C° 0 mm 1 mps 748 mmHg 34%
    14:00 +39°C° 0 mm 1 mps 747 mmHg 34%
    15:00 +39°C° 0 mm 1 mps 747 mmHg 36%
    16:00 +37°C° 0 mm 1 mps 747 mmHg 38%
    17:00 +37°C° 0 mm 1 mps 746 mmHg 40%
    18:00 +35°C° 0 mm 1 mps 747 mmHg 45%
    19:00 +33°C° 0 mm 1 mps 747 mmHg 50%
    20:00 +31°C° 0 mm 1 mps 748 mmHg 55%
    21:00 +31°C° 0 mm 1 mps 748 mmHg 58%
    22:00 +30°C° 0 mm 1 mps 749 mmHg 61%
    23:00 +29°C° 0 mm 1 mps 749 mmHg 64%

    Tomorrow, 20 October, Friday

    Time Temperature Precipitation Wind Pressure Humidity
    00:00 +29°C° 0.1 mm 1 mps 749 mmHg 68%
    01:00 +28°C° 0.1 mm 1 mps 748 mmHg 73%
    02:00 +25°C° 0.1 mm 0 mps 748 mmHg 78%
    03:00 +25°C° 0.1 mm 0 mps 748 mmHg 80%
    04:00 +24°C° 0.1 mm 0 mps 748 mmHg 82%
    05:00 +24°C° 0.1 mm 0 mps 748 mmHg 84%
    06:00 +25°C° 0.1 mm 0 mps 749 mmHg 82%
    07:00 +28°C° 0.1 mm 1 mps 750 mmHg 79%
    08:00 +29°C° 0.1 mm 1 mps 750 mmHg 76%
    09:00 +32°C° 0 mm 1 mps 750 mmHg 64%
    10:00 +35°C° 0 mm 1 mps 750 mmHg 52%
    11:00 +39°C° 0 mm 1 mps 750 mmHg 40%
    12:00 +40°C° 0 mm 1 mps 749 mmHg 38%
    13:00 +40°C° 0 mm 1 mps 748 mmHg 36%
    14:00 +40°C° 0 mm 1 mps 747 mmHg 33%
    15:00 +36°C° 0 mm 0 mps 746 mmHg 36%
    16:00 +35°C° 0 mm 0 mps 746 mmHg 39%
    17:00 +34°C° 0 mm 0 mps 746 mmHg 42%
    18:00 +32°C° 0.1 mm 0 mps 746 mmHg 49%
    19:00 +32°C° 0.1 mm 1 mps 747 mmHg 57%
    20:00 +30°C° 0.1 mm 1 mps 748 mmHg 64%
    21:00 +29°C° 0.3 mm 1 mps 748 mmHg 71%
    22:00 +28°C° 0.3 mm 1 mps 749 mmHg 78%
    23:00 +27°C° 0.3 mm 2 mps 750 mmHg 85%

    Day after tomorrow, 21 October, Saturday

    Time Temperature Precipitation Wind Pressure Humidity
    00:00 +27°C° 0.1 mm 1 mps 749 mmHg 86%
    01:00 +27°C° 0.1 mm 1 mps 748 mmHg 86%
    02:00 +25°C° 0.1 mm 0 mps 748 mmHg 87%
    03:00 +25°C° 0.1 mm 0 mps 748 mmHg 87%
    04:00 +25°C° 0.1 mm 0 mps 748 mmHg 87%
    05:00 +25°C° 0.1 mm 0 mps 748 mmHg 87%
    06:00 +26°C° 0 mm 0 mps 749 mmHg 82%
    07:00 +29°C° 0 mm 1 mps 749 mmHg 77%
    08:00 +30°C° 0 mm 1 mps 750 mmHg 71%
    09:00 +33°C° 0 mm 1 mps 750 mmHg 60%
    10:00 +36°C° 0 mm 1 mps 750 mmHg 49%
    11:00 +39°C° 0 mm 2 mps 750 mmHg 38%
    12:00 +39°C° 0 mm 1 mps 749 mmHg 37%
    13:00 +40°C° 0 mm 1 mps 748 mmHg 36%
    14:00 +40°C° 0 mm 1 mps 747 mmHg 36%
    15:00 +37°C° 0.1 mm 1 mps 747 mmHg 41%
    16:00 +34°C° 0.1 mm 0 mps 747 mmHg 47%
    17:00 +32°C° 0.1 mm 0 mps 747 mmHg 52%
    18:00 +32°C° 0.4 mm 1 mps 747 mmHg 61%
    19:00 +31°C° 0.4 mm 1 mps 748 mmHg 69%
    20:00 +29°C° 0.4 mm 1 mps 749 mmHg 77%
    21:00 +28°C° 0.4 mm 1 mps 749 mmHg 80%
    22:00 +28°C° 0.4 mm 1 mps 749 mmHg 82%
    23:00 +25°C° 0.4 mm 0 mps 750 mmHg 85%

    22 October, Sunday

    Time Temperature Precipitation Wind Pressure Humidity
    00:00 +25°C° 0.1 mm 0 mps 749 mmHg 86%
    01:00 +25°C° 0.1 mm 0 mps 749 mmHg 87%
    02:00 +24°C° 0.1 mm 0 mps 749 mmHg 88%
    03:00 +24°C° 0.1 mm 0 mps 749 mmHg 89%
    04:00 +24°C° 0.1 mm 0 mps 749 mmHg 90%
    05:00 +24°C° 0.1 mm 0 mps 749 mmHg 91%
    06:00 +25°C° 0.3 mm 0 mps 750 mmHg 89%
    07:00 +26°C° 0.3 mm 0 mps 751 mmHg 87%
    08:00 +26°C° 0.3 mm 0 mps 751 mmHg 85%
    09:00 +30°C° 0 mm 0 mps 751 mmHg 70%
    10:00 +34°C° 0 mm 0 mps 751 mmHg 54%
    11:00 +38°C° 0 mm 0 mps 751 mmHg 39%
    12:00 +39°C° 0.1 mm 1 mps 751 mmHg 45%
    13:00 +36°C° 0.1 mm 1 mps 750 mmHg 51%
    14:00 +34°C° 0.1 mm 1 mps 749 mmHg 57%
    15:00 +35°C° 0 mm 1 mps 748 mmHg 53%
    16:00 +35°C° 0 mm 1 mps 748 mmHg 50%
    17:00 +36°C° 0 mm 1 mps 747 mmHg 46%
    18:00 +34°C° 0 mm 1 mps 748 mmHg 53%
    19:00 +30°C° 0 mm 0 mps 748 mmHg 60%
    20:00 +28°C° 0 mm 0 mps 749 mmHg 67%
    21:00 +29°C° 1.4 mm 1 mps 749 mmHg 76%
    22:00 +28°C° 1.4 mm 1 mps 750 mmHg 85%
    23:00 +26°C° 1.4 mm 2 mps 751 mmHg 94%

    23 October, Monday

    Time Temperature Precipitation Wind Pressure Humidity
    00:00 +26°C° 0.5 mm 1 mps 750 mmHg 95%
    01:00 +26°C° 0.5 mm 1 mps 750 mmHg 96%
    02:00 +26°C° 0.5 mm 1 mps 750 mmHg 97%
    03:00 +26°C° 0 mm 1 mps 750 mmHg 97%
    04:00 +26°C° 0 mm 1 mps 750 mmHg 97%
    05:00 +26°C° 0 mm 1 mps 750 mmHg 97%
    06:00 +26°C° 0 mm 1 mps 750 mmHg 95%
    07:00 +26°C° 0 mm 1 mps 751 mmHg 92%
    08:00 +27°C° 0 mm 2 mps 752 mmHg 90%
    09:00 +28°C° 1.2 mm 2 mps 752 mmHg 88%
    10:00 +29°C° 1.2 mm 1 mps 752 mmHg 86%
    11:00 +30°C° 1.2 mm 1 mps 752 mmHg 84%
    12:00 +30°C° 1.4 mm 1 mps 751 mmHg 84%
    13:00 +30°C° 1.4 mm 1 mps 750 mmHg 83%
    14:00 +30°C° 1.4 mm 1 mps 750 mmHg 83%
    15:00 +29°C° 0.8 mm 1 mps 750 mmHg 87%
    16:00 +28°C° 0.8 mm 1 mps 749 mmHg 90%
    17:00 +27°C° 0.8 mm 1 mps 749 mmHg 93%
    18:00 +27°C° 0.1 mm 1 mps 750 mmHg 95%
    19:00 +26°C° 0.1 mm 1 mps 750 mmHg 96%
    20:00 +26°C° 0.1 mm 1 mps 751 mmHg 97%
    21:00 +26°C° 0.1 mm 1 mps 751 mmHg 97%
    22:00 +26°C° 0.1 mm 1 mps 751 mmHg 97%
    23:00 +25°C° 0.1 mm 1 mps 750 mmHg 97%

    24 October, Tuesday

    Time Temperature Precipitation Wind Pressure Humidity
    00:00 +25°C° 0 mm 1 mps 750 mmHg 97%
    01:00 +25°C° 0 mm 1 mps 749 mmHg 97%
    02:00 +23°C° 0 mm 0 mps 749 mmHg 97%
    03:00 +23°C° 0 mm 0 mps 749 mmHg 97%
    04:00 +23°C° 0 mm 0 mps 749 mmHg 97%
    05:00 +23°C° 0 mm 0 mps 750 mmHg 97%
    06:00 +23°C° 0 mm 0 mps 750 mmHg 95%
    07:00 +26°C° 0 mm 1 mps 751 mmHg 93%
    08:00 +26°C° 0 mm 1 mps 751 mmHg 91%
    09:00 +29°C° 0 mm 1 mps 751 mmHg 77%
    10:00 +32°C° 0 mm 1 mps 751 mmHg 63%
    11:00 +35°C° 0 mm 1 mps 751 mmHg 49%
    12:00 +34°C° 0 mm 1 mps 750 mmHg 52%
    13:00 +33°C° 0 mm 1 mps 750 mmHg 55%
    14:00 +32°C° 0 mm 1 mps 749 mmHg 58%
    15:00 +31°C° 0.1 mm 1 mps 749 mmHg 62%
    16:00 +31°C° 0.1 mm 1 mps 748 mmHg 66%
    17:00 +28°C° 0.1 mm 0 mps 748 mmHg 70%
    18:00 +27°C° 0 mm 0 mps 749 mmHg 72%
    19:00 +26°C° 0 mm 0 mps 749 mmHg 73%
    20:00 +26°C° 0 mm 0 mps 750 mmHg 75%
    21:00 +25°C° 0 mm 0 mps 750 mmHg 77%
    22:00 +25°C° 0 mm 0 mps 750 mmHg 79%
    23:00 +24°C° 0 mm 0 mps 750 mmHg 82%
    Show more